Blue Canyon, CA

5:10 PM PDT on April 30, 2017 (GMT -0700)
Blue Canyon-Nyack

Weather History for KBLU - May, 2013

Change the Weather History Date:

Saturday, May 4, 2013

  Actual Average Record
Temperature  
Mean Temperature 58 °F -  
Max Temperature 66 °F 57 °F 71 °F (1985)
Min Temperature 51 °F 41 °F 23 °F (1975)
Degree Days  
Heating Degree Days 8    
Growing Degree Days 8 (Base 50)    
Moisture  
Dew Point 25 °F    
Average Humidity 31    
Maximum Humidity 47    
Minimum Humidity 17    
Precipitation  
Precipitation 0.00 in - - ()
Sea Level Pressure  
Sea Level Pressure 29.66 in    
Wind  
Wind Speed 10 mph (ENE)    
Max Wind Speed 17 mph    
Max Gust Speed 30 mph    
Visibility 10 miles    
Events      
Averages and records for this station are not official NWS values.
T = Trace of Precipitation, MM = Missing Value Source: NWS Daily Summary

Daily Weather History Graph

Daily Weather History Graph

Search for Another Location

Airport or City:

Trip Planner

Search our weather history database for the weather conditions in past years. The results will help you decide how hot, cold, wet, or windy it might be!

Date:

Astronomy

May. 04, 2013 Rise Set
Actual Time 6:00 AM PDT 7:59 PM PDT
Civil Twilight 5:31 AM PDT 8:28 PM PDT
Nautical Twilight 4:55 AM PDT 9:04 PM PDT
Astronomical Twilight 4:17 AM PDT 9:43 PM PDT
Moon 2:59 AM PDT (5/4) 3:04 PM PDT (5/4)
Length of Visible Light 14h 57m
Length of Day
13h 59m
Waning Crescent, 26% of the Moon is Illuminated
May 4
Waning Crescent
May 9
New
May 17
First Quarter
May 24
Full
May 31
Last Quarter

Hourly Weather History & Observations

Time (PDT) Temp. Dew Point Humidity Pressure Visibility Wind Dir Wind Speed Gust Speed Precip Events Conditions
12:52 AM 60.1 °F 15.1 °F 17% 29.81 in 10.0 mi NE 11.5 mph 19.6 mph N/A   Clear
1:52 AM 59.0 °F 15.1 °F 18% 29.78 in 10.0 mi NE 11.5 mph 28.8 mph N/A   Clear
2:52 AM 57.0 °F 16.0 °F 20% 29.76 in 10.0 mi NE 10.4 mph 21.9 mph N/A   Clear
3:52 AM 55.9 °F 17.1 °F 22% 29.76 in 10.0 mi NE 10.4 mph 18.4 mph N/A   Clear
4:52 AM 55.9 °F 18.0 °F 23% 29.74 in 10.0 mi NE 11.5 mph 24.2 mph N/A   Clear
5:52 AM 55.0 °F 18.0 °F 23% 29.74 in 10.0 mi East 10.4 mph 19.6 mph N/A   Clear
6:52 AM 53.1 °F 21.0 °F 29% 29.74 in 10.0 mi East 8.1 mph - N/A   Clear
7:52 AM 55.9 °F 23.0 °F 28% 29.70 in 10.0 mi ENE 8.1 mph - N/A   Clear
8:52 AM 59.0 °F 24.1 °F 26% 29.68 in 10.0 mi NE 8.1 mph 20.7 mph N/A   Clear
9:52 AM 62.1 °F 24.1 °F 23% 29.66 in 10.0 mi ENE 6.9 mph - N/A   Clear
10:52 AM 63.0 °F 21.0 °F 20% 29.63 in 10.0 mi SSE 3.5 mph - N/A   Clear
11:52 AM 64.0 °F 21.0 °F 19% 29.61 in 10.0 mi Variable 3.5 mph - N/A   Clear
12:52 PM 64.0 °F 26.1 °F 24% 29.59 in 10.0 mi Variable 5.8 mph - N/A   Overcast
1:52 PM 63.0 °F 28.0 °F 27% 29.58 in 10.0 mi NW 6.9 mph - N/A   Mostly Cloudy
2:52 PM 59.0 °F 27.0 °F 29% 29.60 in 10.0 mi ENE 10.4 mph 21.9 mph N/A   Overcast
3:52 PM 55.0 °F 32.0 °F 42% 29.62 in 10.0 mi ENE 13.8 mph 25.3 mph N/A   Mostly Cloudy
4:52 PM 54.0 °F 33.1 °F 45% 29.62 in 10.0 mi NE 11.5 mph 18.4 mph N/A   Clear
5:52 PM 54.0 °F 32.0 °F 43% 29.62 in 10.0 mi ENE 17.3 mph 29.9 mph N/A   Clear
6:52 PM 52.0 °F 32.0 °F 47% 29.62 in 10.0 mi ENE 15.0 mph 29.9 mph N/A   Clear
7:52 PM 51.1 °F 30.9 °F 46% 29.61 in 10.0 mi ENE 12.7 mph 26.5 mph N/A   Clear
8:52 PM 51.1 °F 30.9 °F 46% 29.60 in 10.0 mi ENE 10.4 mph 19.6 mph N/A   Clear
9:52 PM 52.0 °F 28.9 °F 41% 29.58 in 10.0 mi East 8.1 mph 20.7 mph N/A   Clear
10:52 PM 53.1 °F 28.0 °F 38% 29.57 in 10.0 mi East 8.1 mph 21.9 mph N/A   Clear
11:52 PM 53.1 °F 28.0 °F 38% 29.56 in 10.0 mi Variable 4.6 mph - N/A   Clear